Home   Weather   Homberg (Efze)   Past weeks

Flag for Germany Past Weather in Homberg (Efze), Hesse, Germany — Yesterday and Last 2 Weeks

Now
16 °F

Clear.


Feels Like: 11 °F
Forecast: 12 / 32 °F
Wind: 3 mph from Northwest

Location: Fritzlar

Current Time: Jan 19, 2017 at 3:29:59 am

Latest Report: Jan 19, 2017 at 2:00 am


Visibility: 13 mi

Pressure: 30.73 "Hg

Humidity: 89%

Dew Point: 13 °F

Location of Homberg (Efze)Location

Past Weather in Homberg (Efze) — Graph

°F

Homberg (Efze) Temperature Yesterday

Maximum temperature yesterday: 29 °F (at 3:00 pm)
Minimum temperature yesterday: 18 °F (at 11:00 pm)
Average temperature yesterday: 24 °F

High & Low Weather Summary for the Past Weeks

 TemperatureHumidityPressure
High40 °F (Jan 4, 2:00 pm)96% (Jan 8, 6:00 pm)30.82 "Hg (Jan 8, 6:00 pm)
Low12 °F (Jan 6, 9:00 pm)54% (Jan 5, 2:00 pm)29.00 "Hg (Jan 13, 3:00 am)
Average30 °F82%30.19 "Hg
* Reported Jan 4 2:00 am — Jan 19 2:00 am, Homberg (Efze), Weather by CustomWeather, © 2017

Note: Actual official high and low records may vary slightly from our data, if they occured in-between our weather recording intervals... More about our weather records

Advertising

Homberg (Efze) Weather History for the Previous 24 Hours

Scroll right to see more
 ConditionsComfort  
Time TempWeatherWind HumidityBarometerVisibility
2:00 am
Thu, Jan 19
16 °FClear.3 mph89%30.73 "Hg12 mi
12:00 am18 °FClear.2 mph90%30.72 "Hg12 mi
11:00 pm
Wed, Jan 18
18 °FClear.1 mph88%30.74 "Hg12 mi
9:00 pm20 °FPassing clouds.N/A88%30.73 "Hg12 mi
8:00 pm21 °FPassing clouds.1 mph83%30.73 "Hg12 mi
6:00 pm27 °FPassing clouds.2 mph71%30.71 "Hg12 mi
5:00 pm27 °FPassing clouds.2 mph72%30.71 "Hg16 mi
3:00 pm29 °FPartly sunny.2 mph68%30.71 "Hg16 mi
2:00 pm29 °FPartly sunny.2 mph69%30.72 "Hg16 mi
12:00 pm27 °FPartly sunny.2 mph71%30.73 "Hg16 mi
11:00 am26 °FPartly sunny.2 mph75%30.76 "Hg16 mi
9:00 am22 °FScattered clouds.2 mph83%30.75 "Hg16 mi
8:00 am24 °FPassing clouds.2 mph79%30.73 "Hg16 mi
6:00 am24 °FOvercast.2 mph81%30.72 "Hg12 mi
5:00 am22 °FOvercast.1 mph88%30.73 "Hg12 mi
3:00 am21 °FOvercast.3 mph88%30.73 "Hg9 mi
Weather by CustomWeather, © 2017

See weather overviewHow to use our weather pages